Lapse_Rate
8.9 8.3 8.3 8.3 8.2 8.4 8.3 9.0 8.9 8.2 7.9 7.0 6.4 6.4 6.2 6.0 5.9 6.1 6.2 6.0 6.1 6.4 6.5 6.5 6.5 6.4 6.4 6.5 6.2 6.2 6.4 6.3 6.2 6.5 6.5 6.8 6.6 6.5 6.4 6.5 6.5 6.1 6.0 6.2
8.5 9.0 8.7 8.4 9.2 8.8 8.4 8.8 8.4 8.2 7.3 7.0 6.5 6.2 5.9 5.7 5.4 5.7 5.3 5.0 5.8 6.1 6.0 5.9 6.3 6.4 6.3 6.3 6.2 6.0 6.2 6.4 6.0 5.9 6.2 6.4 6.9 6.6 6.6 6.8 6.7 6.5 6.2 6.0
7.9 8.3 8.5 8.7 8.4 8.9 9.1 9.1 9.0 7.6 6.6 6.3 6.1 5.9 5.8 6.0 5.6 5.1 4.5 4.3 4.4 5.1 5.4 5.6 5.8 5.9 5.9 5.9 5.7 5.9 6.0 6.2 6.5 6.4 6.2 6.2 6.0 6.2 6.7 6.6 6.7 6.8 6.6 6.5
7.9 8.0 7.7 8.2 8.6 8.8 8.8 8.2 8.1 7.6 7.0 6.5 6.0 5.9 5.9 5.9 5.4 4.9 4.7 4.8 4.7 4.8 4.8 4.9 5.0 5.1 5.4 5.8 5.9 6.1 6.4 6.4 6.5 6.7 6.8 6.8 6.7 6.6 6.7 6.8 6.5 6.7 6.8 6.6
7.9 8.0 8.3 7.9 8.1 8.2 8.4 8.0 7.6 7.2 6.8 6.2 5.9 5.8 5.9 5.8 5.7 5.6 5.2 5.1 5.0 5.0 5.0 4.9 4.9 5.1 5.7 6.2 6.5 6.5 6.5 6.7 6.8 6.9 7.0 6.9 7.0 6.9 6.9 6.9 6.9 6.7 6.8 6.9
8.0 8.0 7.7 7.1 7.7 8.0 7.6 7.4 7.4 7.0 6.5 6.2 6.2 6.2 5.6 5.6 5.5 5.4 5.3 5.2 5.1 5.1 5.1 5.1 5.3 5.5 5.8 6.3 6.7 7.0 7.0 6.7 6.7 6.9 7.0 7.2 6.9 6.8 6.7 6.7 6.8 6.7 6.8 6.7
8.0 8.0 6.8 6.6 7.6 7.6 7.5 5.9 6.1 6.6 6.7 6.6 6.3 6.0 6.0 6.0 5.9 5.7 5.3 5.2 5.2 5.2 5.2 5.2 5.4 5.5 5.6 6.0 6.0 5.9 6.1 6.6 6.9 6.6 6.6 6.9 7.1 7.0 6.8 6.8 6.9 6.5 6.7 6.7
8.0 8.1 6.6 6.7 7.1 7.1 6.1 5.8 6.0 6.5 6.5 6.4 5.9 5.6 5.5 5.3 5.2 5.9 5.9 5.7 5.3 5.1 5.3 5.6 5.7 5.8 6.0 6.1 5.8 5.8 5.8 5.6 6.4 6.6 6.5 6.4 6.7 6.4 6.6 6.8 6.8 6.8 6.8 6.8
7.3 6.9 6.1 6.4 6.3 6.1 6.1 6.1 6.4 6.2 5.8 5.7 5.4 5.5 5.6 5.6 5.5 5.1 5.0 5.3 5.3 5.3 5.6 5.8 6.0 6.2 6.0 5.9 5.7 5.5 5.6 5.8 5.8 6.2 6.2 6.3 6.5 6.6 6.4 6.5 6.6 6.7 6.4 6.4
7.4 5.9 5.6 5.9 5.9 6.2 6.5 6.4 5.9 5.6 5.7 5.6 5.3 5.4 5.2 5.2 5.1 5.2 5.3 5.4 5.5 5.7 6.0 6.2 6.4 6.1 5.7 5.8 5.9 5.7 5.9 5.8 5.7 5.8 6.1 6.0 6.2 6.2 6.1 6.2 6.5 6.4 6.4 6.2
6.7 5.9 5.7 5.7 5.7 6.0 6.2 6.0 5.8 5.8 5.6 5.3 5.4 5.4 5.4 5.4 5.4 5.2 5.4 5.6 5.7 5.8 5.8 5.9 5.9 5.8 5.9 5.7 5.6 5.6 5.8 6.0 5.8 5.8 6.0 6.0 5.9 5.9 6.1 6.0 6.2 6.2 6.3 6.5
6.3 6.1 6.2 6.2 5.6 5.8 5.9 5.8 5.8 5.6 5.3 5.6 5.2 5.2 5.1 5.4 5.3 5.4 5.5 5.4 5.3 5.3 5.3 5.5 5.4 5.5 5.6 5.5 5.2 5.2 5.4 5.7 5.6 5.7 5.9 5.9 5.8 5.9 6.0 6.0 6.0 6.1 6.1 6.3
7.0 6.8 6.3 5.7 5.4 5.3 5.3 5.2 5.1 4.8 5.2 5.3 5.2 5.0 5.2 5.3 5.4 5.2 4.9 4.9 5.0 5.2 5.5 5.4 5.4 5.5 5.3 5.3 5.2 5.3 5.3 5.5 5.7 5.8 5.9 6.0 5.8 5.9 6.1 5.9 5.9 6.1 6.0 6.3
6.7 6.7 6.4 5.2 5.1 5.0 5.1 5.3 4.8 4.4 4.7 5.2 5.1 5.2 5.3 5.3 4.9 4.7 4.8 5.0 5.3 5.4 5.4 5.3 5.2 5.3 5.2 5.2 5.2 5.3 5.5 5.7 5.7 5.9 5.9 5.8 5.9 5.7 5.6 5.2 6.0 6.1 6.0 6.2
6.4 6.3 5.5 5.4 5.4 5.2 5.0 4.6 4.5 4.5 4.6 4.8 5.2 5.2 5.1 5.0 4.7 4.8 5.0 5.2 5.4 5.1 5.0 5.1 5.3 5.3 5.1 5.2 5.2 5.2 5.3 5.4 5.6 5.8 6.0 5.7 5.7 5.6 5.6 5.6 5.8 6.3 6.3 6.4
6.0 6.0 5.7 5.4 5.3 5.1 5.0 4.8 4.6 4.8 4.9 5.1 5.1 5.3 5.0 4.9 4.7 4.9 5.0 5.2 5.2 5.2 5.2 5.5 5.2 5.0 5.0 5.0 5.0 5.0 5.3 5.3 5.3 5.5 5.7 5.7 5.7 5.8 5.8 5.9 5.6 5.6 5.9 5.9
5.9 5.8 5.5 5.3 5.3 5.2 5.0 4.7 4.5 4.9 5.0 5.0 5.2 5.1 5.0 4.9 5.1 5.4 5.4 5.2 5.0 5.1 5.2 5.0 5.1 5.6 5.7 5.6 5.3 5.4 5.4 5.6 5.7 5.7 5.4 5.6 5.9 6.0 5.8 5.7 5.9 5.6 5.7 5.5
6.1 5.8 5.7 5.8 5.7 5.6 5.2 4.9 5.1 4.8 5.1 5.0 5.3 5.2 5.1 4.8 5.1 5.4 5.5 5.3 5.1 5.2 5.3 5.2 5.4 5.6 5.7 5.5 5.6 5.7 5.7 5.9 6.0 5.7 5.4 5.5 5.6 5.4 5.5 5.5 5.8 5.6 5.6 5.9
6.0 5.8 5.5 5.7 5.7 5.5 5.1 4.9 4.7 4.8 4.9 5.3 5.5 5.4 5.0 5.2 5.3 5.2 5.2 5.2 5.2 5.3 5.6 5.2 5.3 5.1 5.5 5.5 5.6 5.8 6.0 6.0 5.9 5.8 5.8 5.6 5.3 5.4 5.7 5.9 6.0 6.4 6.2 6.2
6.0 5.6 5.6 5.3 5.8 5.4 5.1 5.2 4.9 4.9 5.2 5.3 5.5 5.3 5.4 5.6 5.4 5.2 5.3 5.3 5.2 5.0 4.6 5.0 5.0 5.0 5.3 5.7 5.6 5.9 5.9 6.0 6.1 6.0 5.9 5.9 5.9 5.9 5.9 6.0 6.1 6.3 6.1 6.6
5.8 5.7 5.7 5.6 5.3 5.2 5.1 5.0 5.2 5.1 5.4 5.3 5.5 5.8 5.4 5.4 5.0 5.3 5.5 5.6 5.7 5.4 5.3 5.3 5.3 5.0 5.0 5.5 5.7 5.6 5.7 5.9 6.2 6.2 6.0 5.8 5.2 6.1 6.4 6.4 6.3 6.0 5.8 6.1
5.9 5.7 5.4 5.4 5.3 5.2 5.3 5.3 5.6 5.2 5.4 5.5 5.7 5.4 5.2 5.2 4.7 5.1 5.4 5.5 5.5 5.5 5.5 5.8 5.8 5.1 4.9 5.1 5.2 5.3 5.3 5.8 6.0 6.2 6.1 6.0 6.0 5.8 4.7 5.7 5.6 5.3 5.7 6.2
5.9 5.4 5.4 5.3 5.5 5.8 5.9 5.9 5.9 5.9 5.5 5.4 5.5 5.2 5.1 5.2 4.9 4.9 4.9 5.1 5.1 5.0 5.3 5.3 5.5 5.6 4.9 4.9 5.1 4.9 5.1 5.3 5.4 5.5 5.5 5.7 6.0 5.5 4.6 5.1 5.3 5.6 5.9 5.9
6.0 6.1 6.0 5.9 6.0 6.2 6.1 6.0 5.8 5.7 5.4 5.4 5.0 5.1 5.0 5.1 5.0 4.9 4.5 5.0 4.8 5.1 5.6 5.5 5.4 5.5 5.2 5.3 5.2 4.9 5.0 5.1 5.3 5.3 5.0 5.1 5.4 5.4 4.7 5.8 5.6 5.9 6.0 5.9
6.2 6.2 6.3 6.2 6.1 6.2 6.1 6.0 5.8 5.4 5.5 5.2 5.1 5.2 5.2 5.1 4.8 4.7 4.5 4.4 4.2 4.2 4.2 4.3 4.7 5.7 5.6 5.2 5.3 5.5 5.3 5.3 5.4 5.5 5.0 4.7 4.9 4.9 5.2 5.4 5.7 5.7 5.6 5.5
6.2 6.2 6.3 6.1 5.9 5.7 5.5 5.6 5.6 5.5 5.3 5.2 5.2 5.5 5.5 5.2 5.0 4.7 4.6 4.4 4.5 4.7 4.6 4.6 4.4 4.3 5.4 5.2 5.2 5.5 5.3 5.2 5.2 5.3 5.2 4.8 4.8 4.8 4.9 5.0 5.3 5.0 5.1 5.1
6.3 6.5 6.1 5.8 5.8 5.6 5.4 5.3 5.4 5.3 5.6 5.4 5.7 5.6 5.4 5.5 5.2 4.9 4.9 4.3 4.4 4.3 4.4 4.2 4.2 4.3 4.1 4.7 4.9 5.0 5.3 5.5 5.3 5.2 5.2 5.5 5.3 5.3 5.4 5.4 5.4 5.3 5.3 5.0
Wind_Speed
4 10 7 5 13 7 11 13 4 7 10 11 7 8 7 11 9 7 8 7 6 5 5 5 7 7 7 5 4 5 6 4 4 5 7 7 8 10 13 10 10 8 8 9
3 3 12 8 12 4 3 18 12 19 15 12 11 6 7 9 10 8 7 6 5 5 5 2 2 4 5 6 7 5 4 5 5 2 4 7 7 7 10 13 10 10 10 10
3 8 9 3 4 4 2 12 16 16 10 11 9 9 7 7 8 7 6 5 3 3 5 3 3 3 4 5 6 7 7 7 6 7 5 6 7 7 8 9 11 12 13 11
2 4 2 2 7 9 19 15 14 14 11 11 9 9 12 10 8 7 5 5 5 4 4 4 3 4 4 5 4 5 7 7 7 7 6 6 6 8 8 7 10 11 13 14
4 3 3 7 6 6 9 11 13 12 13 11 8 11 8 8 7 5 5 4 3 3 3 4 4 6 5 6 6 5 6 7 7 7 6 6 6 7 8 8 10 11 11 14
1 1 3 4 7 8 2 5 9 11 10 9 7 3 2 4 4 5 6 4 5 8 5 5 8 7 6 6 6 7 7 7 7 7 7 6 6 6 5 8 11 10 12 12
4 3 4 5 6 6 3 3 8 9 8 9 5 2 4 8 7 5 5 7 6 5 4 6 3 3 5 5 6 8 7 7 7 7 7 7 6 5 4 5 4 6 8 10
2 1 3 9 6 5 4 8 9 9 8 6 6 7 6 7 8 8 8 8 7 6 7 8 8 5 6 7 7 7 6 7 9 8 6 5 7 6 5 4 3 1 2 3
4 4 4 7 8 7 9 8 7 5 4 4 6 6 7 6 7 7 7 7 7 7 8 7 7 7 9 8 7 7 7 8 8 8 8 7 6 6 6 7 7 5 4 7
7 4 7 10 9 9 7 6 3 6 8 7 7 8 8 7 7 7 7 7 6 8 11 11 9 12 12 8 8 8 8 8 8 10 12 6 6 6 7 8 7 6 6 6
9 8 10 8 7 7 7 8 9 7 7 7 7 7 7 6 7 7 7 8 9 10 10 11 12 14 14 13 9 8 9 9 8 9 11 9 8 9 9 11 10 8 8 9
3 5 7 5 6 8 8 4 4 6 7 8 8 8 8 7 7 6 9 9 9 11 12 13 14 14 14 11 9 11 10 8 7 8 9 8 8 8 14 18 19 18 13 12
5 7 6 10 8 6 3 2 6 8 6 6 7 6 6 6 7 10 9 9 11 13 14 13 14 13 14 14 10 10 9 8 6 8 9 9 8 8 6 5 7 8 15 18
8 4 6 5 4 5 8 7 6 5 7 6 6 5 3 5 8 9 10 12 12 14 12 13 14 14 10 11 12 10 9 12 7 8 8 9 9 8 6 5 5 5 10 14
7 5 5 7 8 7 6 4 5 6 6 4 4 3 3 6 7 9 9 8 12 13 11 11 15 16 14 14 13 13 8 7 7 8 8 10 8 7 7 9 5 4 2 2
5 5 7 8 5 5 5 6 6 6 5 4 5 6 7 7 8 9 10 10 11 12 14 14 15 17 16 15 12 10 9 13 12 8 8 7 8 7 5 6 6 5 5 6
5 5 3 5 4 5 4 3 5 4 3 4 5 5 7 8 8 9 11 12 12 13 13 14 16 17 17 15 11 9 7 8 12 7 5 7 7 7 6 7 7 5 6 7
3 5 5 5 2 2 3 5 3 3 4 4 3 4 5 7 8 10 12 13 12 13 13 15 16 18 16 15 13 9 8 9 7 5 6 5 5 5 6 7 6 2 4 5
3 4 4 5 4 3 2 1 5 4 5 4 5 5 6 6 4 5 9 11 12 13 15 15 26 20 15 18 17 9 8 10 9 7 6 9 8 6 6 6 5 5 4 5
4 2 5 4 6 4 4 3 5 4 3 4 4 5 4 3 3 3 5 6 7 7 13 14 15 14 14 17 19 9 9 9 9 8 9 7 5 9 8 9 7 6 5 4
2 2 1 3 2 3 2 4 3 2 3 3 3 3 3 2 2 3 5 4 7 9 10 14 11 11 9 14 13 10 11 10 10 10 10 9 9 11 13 6 4 4 3 3
6 6 5 3 3 2 1 3 3 1 3 1 3 3 3 2 2 4 2 1 4 9 5 5 6 13 12 20 10 11 12 12 10 10 10 11 11 11 10 11 12 9 7 5
2 2 3 4 3 4 4 4 5 2 2 3 5 4 1 4 3 2 2 4 3 4 3 3 7 10 12 8 9 10 12 13 13 13 12 11 11 12 11 10 9 11 11 10
4 4 1 1 4 3 6 5 4 2 5 7 5 4 3 4 4 4 4 6 8 7 5 4 5 7 8 4 6 7 8 8 9 10 10 13 10 10 10 10 11 10 11 12
4 4 3 4 3 2 4 4 4 4 5 4 3 1 5 3 4 3 3 5 8 5 3 5 9 6 3 4 5 6 8 6 4 5 7 8 9 10 10 10 10 10 10 9
2 1 3 3 2 1 1 3 3 3 3 4 3 4 5 5 4 5 4 6 4 3 5 5 5 4 2 2 5 6 5 8 9 7 6 5 6 7 8 9 9 9 9 8
4 3 1 2 1 2 3 2 2 2 0 2 3 4 5 5 5 6 7 4 1 4 3 4 5 5 3 3 4 5 5 5 6 6 7 9 9 8 7 7 7 7 7 8
Wind_Direction
119 168 177 222 297 320 346 304 36 141 126 138 127 102 127 118 111 99 84 68 57 27 10 36 22 4 4 9 28 359 348 2 306 304 235 215 210 198 204 209 208 197 201 201
359 259 192 198 236 242 279 295 116 104 113 149 172 171 101 140 138 125 118 102 64 22 343 341 37 345 356 11 354 355 352 332 325 334 319 248 214 217 200 208 210 201 204 214
310 341 338 305 213 227 39 54 117 111 123 104 84 78 57 351 125 134 111 100 64 327 296 318 333 25 356 345 344 339 321 313 309 308 310 271 261 232 224 201 208 208 214 208
234 330 291 178 27 54 70 46 112 110 106 106 101 77 73 62 69 52 44 24 341 344 356 343 341 322 299 308 304 301 306 305 294 281 278 283 266 253 238 222 212 210 214 214
157 210 210 53 15 26 107 37 37 79 85 79 77 100 55 41 37 25 5 346 330 303 267 272 270 266 256 255 259 282 287 287 290 290 267 277 276 264 254 240 238 227 211 213
52 287 313 116 44 358 144 60 38 56 54 52 50 40 196 45 20 338 322 299 292 289 297 301 280 262 252 256 249 253 259 263 271 294 279 254 267 276 284 281 258 233 230 214
213 211 80 44 29 313 64 176 59 59 48 41 54 151 297 346 332 307 316 341 359 357 327 307 320 328 309 284 269 260 263 269 266 264 269 245 245 259 253 271 276 277 268 260
310 39 124 333 29 78 158 60 63 44 36 25 3 332 306 314 9 1 342 334 338 338 337 329 314 320 298 283 269 253 266 272 272 259 249 256 230 245 222 201 235 238 58 315
96 156 146 67 104 69 75 80 57 52 357 322 346 11 357 344 347 329 334 341 344 334 314 305 297 290 288 276 272 269 263 256 261 268 256 233 248 225 226 229 219 227 187 234
96 144 99 81 71 70 68 74 36 32 50 31 12 9 2 1 348 352 334 315 320 322 317 308 311 305 292 279 273 267 270 258 257 265 268 237 236 233 235 247 238 209 206 203
96 88 82 75 82 80 54 44 43 31 26 12 15 350 338 336 350 333 325 333 320 312 313 309 313 310 301 290 277 272 268 262 256 262 266 262 244 243 227 237 225 234 227 228
134 105 105 121 96 90 77 38 19 37 35 39 42 21 8 357 343 338 321 316 323 316 312 309 310 303 301 291 279 278 271 265 255 261 264 262 267 257 232 223 217 221 210 212
124 106 115 110 115 107 109 316 50 68 72 57 44 21 25 341 321 321 315 318 323 314 309 305 300 295 302 303 286 276 263 256 255 257 264 266 268 269 276 266 290 262 220 211
82 105 94 109 120 96 66 45 19 69 76 77 47 18 14 331 321 320 320 317 314 311 309 316 317 308 306 317 307 283 267 252 250 254 256 262 262 265 275 253 238 218 228 225
81 44 72 85 75 64 64 25 9 43 26 62 74 359 354 317 307 307 301 312 332 326 317 334 332 324 325 316 307 301 280 263 251 244 244 250 258 264 267 268 263 234 158 212
61 78 88 107 109 90 46 4 48 36 13 30 15 20 350 330 331 324 333 348 347 339 342 332 328 322 319 309 301 296 295 277 264 262 249 244 249 247 256 256 244 222 198 204
108 100 81 93 62 60 48 34 71 30 41 21 42 23 23 360 344 348 354 353 349 340 337 335 324 325 321 316 289 281 281 290 272 268 259 231 234 240 251 265 257 221 207 185
86 163 156 140 153 86 42 358 59 18 69 29 56 42 37 18 2 1 358 351 347 344 345 340 335 337 332 333 326 308 298 292 276 255 264 270 242 245 247 256 258 183 166 222
50 327 115 130 163 146 258 296 27 9 71 46 8 29 40 77 20 21 9 8 359 351 345 342 343 339 346 346 348 350 355 352 347 307 297 279 269 237 244 245 231 215 210 173
248 332 8 202 181 180 269 117 45 9 57 58 17 53 40 108 61 32 25 16 351 345 337 343 344 347 350 356 359 1 3 3 2 357 346 340 342 318 263 241 227 211 188 166
327 40 298 212 226 126 292 132 101 350 67 61 7 131 89 143 152 51 23 357 334 344 334 349 359 4 1 5 9 6 10 11 9 13 8 360 1 360 349 281 229 183 102 84
28 24 86 68 26 357 327 315 244 252 148 302 284 201 157 121 41 140 128 242 298 324 326 355 351 7 19 23 11 17 16 19 19 20 18 15 13 30 12 13 12 45 54 40
36 0 353 49 8 316 320 282 269 102 249 230 255 240 206 178 207 182 257 265 260 281 291 310 330 350 360 19 20 19 22 22 24 25 23 20 23 25 22 23 24 23 31 27
357 315 11 329 289 283 282 244 313 38 305 263 241 250 183 168 235 200 198 218 242 249 264 261 285 316 357 353 14 11 17 17 26 30 32 24 24 22 34 21 32 31 31 24
349 22 332 287 283 310 14 17 329 306 281 30 310 111 205 257 197 238 210 223 258 282 350 260 244 274 10 340 6 15 17 16 23 13 18 26 29 27 28 27 29 29 39 29
270 251 264 240 85 108 9 349 347 319 345 6 28 49 38 22 359 290 259 268 279 28 16 333 348 25 139 311 17 12 15 28 22 21 18 19 25 37 35 32 31 28 31 26
61 7 56 106 111 19 268 245 119 160 353 22 59 56 47 13 357 354 341 301 118 99 45 357 343 9 33 86 52 40 25 18 41 35 34 27 21 24 31 31 34 36 30 27